N0YK Weather Reports


time (UTC)temp
F
wind
direction
speed
knots
gust
knots
rain 1hr
in
rain 24hr
in
rain mn
in
humidity
%
barometer
mb
20260505025505 66 49 13.0 21.7 0.00 0.00 0.00 48 1000.0
20260505025026 67 46 13.0 20.9 0.00 0.00 0.00 47 999.7
20260505024505 67 48 13.0 20.0 0.00 0.00 0.00 46 999.8
20260505024005 67 48 13.0 20.0 0.00 0.00 0.00 45 999.8
20260505023505 68 55 10.4 17.4 0.00 0.00 0.00 45 999.5
20260505023005 68 50 10.4 20.0 0.00 0.00 0.00 44 999.4
20260505022526 69 43 11.3 22.6 0.00 0.00 0.00 43 999.5
20260505022005 69 42 10.4 22.6 0.00 0.00 0.00 42 999.3
20260505021504 70 36 7.8 15.6 0.00 0.00 0.00 39 998.9
20260505021005 72 49 10.4 15.6 0.00 0.00 0.00 37 998.6
20260505020504 73 47 8.7 13.9 0.00 0.00 0.00 33 998.6
20260505020005 74 54 3.5 6.1 0.00 0.00 0.00 31 998.1
20260505015505 74 60 3.5 6.1 0.00 0.00 0.00 31 998.0
20260505015026 74 57 2.6 6.1 0.00 0.00 0.00 30 998.0
20260505014505 75 93 2.6 5.2 0.00 0.00 0.00 30 998.0
20260505014004 75 75 1.7 4.3 0.00 0.00 0.00 30 997.9
20260505013505 75 63 1.7 4.3 0.00 0.00 0.00 30 997.8
20260505013005 75 54 1.7 4.3 0.00 0.00 0.00 30 997.7
20260505012504 75 110 1.7 6.1 0.00 0.00 0.00 30 997.8
20260505012005 76 86 2.6 6.1 0.00 0.00 0.00 30 997.5
20260505011526 76 89 2.6 6.1 0.00 0.00 0.00 29 997.5
20260505011005 76 84 2.6 6.1 0.00 0.00 0.00 29 997.5
20260505010504 76 76 2.6 6.1 0.00 0.00 0.00 29 997.3
20260505010005 77 82 1.7 6.1 0.00 0.00 0.00 28 997.2
20260505005505 77 62 1.7 7.8 0.00 0.00 0.00 28 997.2
20260505005005 77 57 2.6 7.8 0.00 0.00 0.00 29 997.2
20260505004526 77 94 2.6 6.1 0.00 0.00 0.00 29 997.3
20260505004004 78 102 1.7 5.2 0.00 0.00 0.00 29 997.3
20260505003505 78 157 2.6 6.1 0.00 0.00 0.00 28 997.4
20260505003004 78 93 1.7 6.1 0.00 0.00 0.00 28 997.3
20260505002505 78 110 1.7 7.0 0.00 0.00 0.00 28 997.5
20260505002004 79 100 3.5 7.0 0.00 0.00 0.00 28 997.4
20260505001505 79 98 2.6 7.8 0.00 0.00 0.00 28 997.5
20260505001005 79 95 2.6 7.8 0.00 0.00 0.00 28 997.5
20260505000504 80 86 2.6 8.7 0.00 0.00 0.00 28 997.6
20260505000005 80 110 3.5 8.7 0.00 0.00 0.00 27 997.6
20260504235504 80 104 3.5 6.1 0.00 0.00 0.00 27 997.6
20260504235005 81 99 2.6 9.6 0.00 0.00 0.00 26 997.7
20260504234526 81 88 3.5 9.6 0.00 0.00 0.00 26 997.7
20260504234004 82 93 1.7 3.5 0.00 0.00 0.00 24 997.8
20260504233505 82 66 1.7 4.3 0.00 0.00 0.00 23 997.9
20260504233004 82 244 1.7 4.3 0.00 0.00 0.00 24 997.9
20260504232505 82 201 2.6 4.3 0.00 0.00 0.00 24 997.9
20260504232004 82 211 0.0 1.7 0.00 0.00 0.00 22 997.9
20260504231505 82 206 0.0 1.7 0.00 0.00 0.00 22 997.9
20260504231004 82 208 0.0 3.5 0.00 0.00 0.00 23 997.9
20260504230505 82 213 0.9 4.3 0.00 0.00 0.00 23 997.8
20260504230025 82 258 2.6 5.2 0.00 0.00 0.00 22 997.9
20260504225505 82 257 3.5 5.2 0.00 0.00 0.00 22 998.0
20260504225004 82 275 1.7 7.0 0.00 0.00 0.00 24 998.0
20260504224505 81 267 4.3 7.0 0.00 0.00 0.00 22 998.1
20260504224005 81 216 0.9 7.8 0.00 0.00 0.00 23 998.1
20260504223505 81 248 4.3 9.6 0.00 0.00 0.00 22 998.0
20260504223005 81 261 2.6 11.3 0.00 0.00 0.00 24 998.1
20260504222505 81 308 7.0 13.9 0.00 0.00 0.00 24 997.9
20260504222005 81 266 7.8 13.9 0.00 0.00 0.00 23 998.1
20260504221505 81 270 6.1 14.8 0.00 0.00 0.00 23 998.1
20260504221005 80 316 2.6 14.8 0.00 0.00 0.00 22 998.1
20260504220504 80 267 2.6 15.6 0.00 0.00 0.00 22 998.1
20260504220026 80 279 10.4 15.6 0.00 0.00 0.00 22 998.3
20260504215504 80 256 6.1 15.6 0.00 0.00 0.00 22 998.4
20260504215005 80 259 6.1 9.6 0.00 0.00 0.00 22 998.5
20260504214504 80 349 0.9 7.8 0.00 0.00 0.00 22 998.4
20260504214005 80 221 3.5 8.7 0.00 0.00 0.00 24 998.8
20260504213505 79 167 4.3 12.2 0.00 0.00 0.00 22 998.8
20260504213004 79 157 4.3 13.9 0.00 0.00 0.00 25 998.8
20260504212505 79 138 7.0 15.6 0.00 0.00 0.00 26 998.4
20260504212005 80 146 4.3 21.7 0.00 0.00 0.00 25 998.5
20260504211505 80 129 6.1 21.7 0.00 0.00 0.00 25 998.5
20260504211005 81 132 5.2 8.7 0.00 0.00 0.00 24 998.6
20260504210504 81 118 3.5 14.8 0.00 0.00 0.00 22 998.6
20260504205504 82 142 6.1 15.6 0.00 0.00 0.00 22 998.4
20260504205026 82 144 2.6 5.2 0.00 0.00 0.00 23 998.4
20260504204505 83 240 0.9 2.6 0.00 0.00 0.00 20 998.5
20260504204005 83 245 0.0 5.2 0.00 0.00 0.00 19 998.6
20260504203504 83 245 0.9 7.0 0.00 0.00 0.00 20 998.5
20260504203005 84 301 3.5 14.8 0.00 0.00 0.00 18 998.6
20260504202504 84 249 8.7 14.8 0.00 0.00 0.00 19 998.7
20260504202005 84 292 2.6 10.4 0.00 0.00 0.00 20 998.7
20260504201547 84 307 5.2 10.4 0.00 0.00 0.00 20 998.8
20260504201005 83 306 6.1 8.7 0.00 0.00 0.00 21 998.8
20260504200505 83 241 4.3 7.8 0.00 0.00 0.00 20 999.0
20260504200005 82 245 3.5 7.8 0.00 0.00 0.00 21 999.0
20260504195504 82 276 3.5 8.7 0.00 0.00 0.00 22 999.2
20260504195005 81 231 4.3 8.7 0.00 0.00 0.00 21 999.3
20260504194505 81 171 2.6 7.0 0.00 0.00 0.00 24 999.1
20260504194005 81 89 1.7 7.0 0.00 0.00 0.00 25 999.3
20260504193505 81 28 1.7 5.2 0.00 0.00 0.00 24 999.3
20260504193004 81 81 3.5 7.0 0.00 0.00 0.00 24 999.3
20260504192504 81 82 3.5 7.8 0.00 0.00 0.00 24 999.3
20260504192004 81 50 3.5 11.3 0.00 0.00 0.00 23 999.5
20260504191505 81 57 2.6 11.3 0.00 0.00 0.00 25 999.4
20260504191004 81 50 7.8 11.3 0.00 0.00 0.00 24 999.3
20260504190526 81 37 6.1 8.7 0.00 0.00 0.00 24 999.2
20260504190005 81 46 6.1 9.6 0.00 0.00 0.00 24 999.3
20260504185546 81 32 4.3 11.3 0.00 0.00 0.00 24 999.4
20260504185005 81 44 6.1 13.9 0.00 0.00 0.00 24 999.5
20260504184504 81 43 7.0 13.9 0.00 0.00 0.00 24 999.6
20260504184005 82 47 7.0 10.4 0.00 0.00 0.00 24 999.5
20260504183504 82 33 4.3 8.7 0.00 0.00 0.00 24 999.6
20260504183005 82 31 2.6 8.7 0.00 0.00 0.00 23 999.6
20260504182504 82 38 4.3 9.6 0.00 0.00 0.00 22 999.7
20260504182005 82 67 3.5 10.4 0.00 0.00 0.00 21 999.8
20260504181525 82 46 7.0 10.4 0.00 0.00 0.00 22 999.8
20260504181005 83 42 5.2 11.3 0.00 0.00 0.00 22 999.9
20260504180504 83 15 5.2 11.3 0.00 0.00 0.00 23 1000.1
20260504180005 83 22 5.2 13.0 0.00 0.00 0.00 22 1000.1
20260504175525 83 49 7.8 13.0 0.00 0.00 0.00 23 1000.1
20260504175005 83 33 4.3 9.6 0.00 0.00 0.00 23 1000.3
20260504174504 83 319 6.1 9.6 0.00 0.00 0.00 25 1000.3
20260504174005 82 29 2.6 8.7 0.00 0.00 0.00 26 1000.4
20260504173505 82 53 2.6 8.7 0.00 0.00 0.00 27 1000.5
20260504173004 81 37 4.3 8.7 0.00 0.00 0.00 28 1000.5
20260504172526 81 31 6.1 9.6 0.00 0.00 0.00 29 1000.6
20260504172004 81 41 3.5 10.4 0.00 0.00 0.00 28 1000.7
20260504171505 81 40 5.2 10.4 0.00 0.00 0.00 28 1000.7
20260504171004 80 51 2.6 9.6 0.00 0.00 0.00 29 1000.8
20260504170505 80 35 6.1 10.4 0.00 0.00 0.00 29 1000.8
20260504151005 75 301 4.3 6.1 0.00 0.00 0.00 38 1001.2
20260504150505 74 309 4.3 6.1 0.00 0.00 0.00 40 1001.4
20260504140505 62 300 3.5 7.8 0.00 0.00 0.00 56 1001.9
20260504130505 51 328 3.5 6.1 0.00 0.00 0.00 71 1001.8
20260504110505 44 336 1.7 5.2 0.00 0.00 0.00 75 1001.3
20260504100504 45 331 1.7 5.2 0.00 0.00 0.00 73 1001.9
20260504082004 50 320 3.5 5.2 0.00 0.00 0.00 67 1002.1
20260504081504 50 323 4.3 5.2 0.00 0.00 0.00 67 1002.2
20260504081004 50 295 2.6 3.5 0.00 0.00 0.00 66 1002.2
20260504080504 51 293 0.9 3.5 0.00 0.00 0.00 66 1002.4
20260504050504 61 50 5.2 9.6 0.00 0.00 0.00 48 1003.3
20260504050004 61 62 4.3 9.6 0.00 0.00 0.00 47 1003.2
20260504045504 61 55 4.3 9.6 0.00 0.00 0.00 47 1003.2
20260504045004 61 60 5.2 11.3 0.00 0.00 0.00 47 1003.3
20260504044525 61 51 4.3 11.3 0.00 0.00 0.00 47 1003.3
20260504044005 61 57 5.2 10.4 0.00 0.00 0.00 47 1003.3
20260504043504 61 62 4.3 10.4 0.00 0.00 0.00 46 1003.5
20260504043005 61 65 5.2 11.3 0.00 0.00 0.00 46 1003.5
20260504042504 62 67 6.1 11.3 0.00 0.00 0.00 45 1003.6
20260504042004 62 71 5.2 12.2 0.00 0.00 0.00 45 1003.6
20260504041504 62 59 5.2 12.2 0.00 0.00 0.00 44 1003.7
20260504041025 62 61 5.2 10.4 0.00 0.00 0.00 43 1003.8
20260504040505 63 61 5.2 10.4 0.00 0.00 0.00 43 1003.8
20260504040025 63 65 5.2 11.3 0.00 0.00 0.00 43 1003.8
20260504035525 63 58 6.1 11.3 0.00 0.00 0.00 42 1003.9
20260504035026 64 61 6.1 12.2 0.00 0.00 0.00 42 1003.8
20260504034504 64 58 6.1 12.2 0.00 0.00 0.00 42 1003.9
20260504034005 64 62 6.1 9.6 0.00 0.00 0.00 41 1003.9
20260504033504 64 59 5.2 12.2 0.00 0.00 0.00 41 1003.8
20260504033025 65 68 6.1 15.6 0.00 0.00 0.00 40 1004.1
20260504032504 66 64 7.0 15.6 0.00 0.00 0.00 39 1004.0
20260504032004 66 58 7.0 11.3 0.00 0.00 0.00 38 1004.0
20260504031504 66 64 5.2 11.3 0.00 0.00 0.00 38 1003.9
20260504031004 67 59 6.1 10.4 0.00 0.00 0.00 37 1004.0
20260504030504 67 63 5.2 9.6 0.00 0.00 0.00 36 1003.9
20260504030004 67 55 4.3 8.7 0.00 0.00 0.00 36 1004.0